Location: Beucha
(51.1495°N, 12.5832°E)
Time: 06:05:28
(UTC+00:00)

Daily predictions for brighter satellites

Satellite Brightness Start Highest point End
(mag) Time Altitude Azimuth Time Altitude Azimuth Time Altitude Azimuth
Cosmos 1833 Rocket 3.4 19:12:52 10° SSE 19:17:46 32° ESE 19:22:43 10° NE
Cosmos 389 Rocket 2.4 19:16:04 10° N 19:19:31 69° ENE 19:22:57 10° SSE
Cosmos 1812 2.8 19:17:34 10° N 19:21:23 61° ENE 19:25:11 10° SSE
Cosmos 1727 Rocket 4.2 19:15:01 10° N 19:21:24 84° W 19:27:46 10° S
SPOT 3 Rocket 3.7 19:17:16 10° SSE 19:22:30 87° WSW 19:27:44 10° NNW
Cosmos 1633 Rocket 4.3 19:19:31 10° SE 19:23:01 23° E 19:26:33 10° NE
Cosmos 2251 Rocket 3.6 19:19:22 10° SSW 19:24:39 89° ESE 19:29:59 10° NNE
Cosmos 1656 3.9 19:21:04 10° NNW 19:26:32 72° WSW 19:32:02 10° SSE
Cosmos 1707 Rocket 3.8 19:26:32 10° N 19:30:50 53° ENE 19:35:04 10° SSE
Cosmos 220 Rocket 4.0 19:26:52 10° NNW 19:31:07 88° WSW 19:35:20 10° SSE
Cosmos 1633 4.2 19:28:54 10° SW 19:32:13 37° WNW 19:35:32 10° N
IRIDIUM 104 4.3 19:27:37 10° S 19:32:48 74° E 19:38:02 10° N
Resurs 01 Rocket 1.6 19:29:10 10° SSE 19:33:35 86° ENE 19:38:03 10° NNW
Landsat 7 4.3 19:30:36 10° SE 19:35:08 46° ENE 19:39:42 10° N
Cosmos 1441 Rocket 3.2 19:35:37 10° S 19:39:21 61° E 19:43:05 10° NNE
Cosmos 1934 Rocket 4.5 19:34:19 10° SSE 19:40:15 43° E 19:46:13 10° NNE
IRIDIUM 114 4.3 19:36:44 10° S 19:41:57 87° E 19:47:12 10° N
Cosmos 2360 4.3 19:36:11 10° NNW 19:41:57 73° ENE 19:47:32 11° SE
Cosmos 614 Rocket 4.0 19:38:03 10° S 19:43:07 60° ESE 19:48:16 10° NNE
IGS 5A 3.7 19:41:12 10° SSE 19:45:14 53° ENE 19:49:17 10° N
Cosmos 1900 4.3 19:41:31 10° SW 19:46:28 86° SE 19:51:33 10° NE
USA 267 3.4 19:40:29 10° ENE 19:46:54 54° SE 19:53:17 10° SW
GP-B 3.7 19:45:04 10° NNE 19:49:16 39° E 19:53:14 11° SSE
IRIDIUM 103 4.5 19:45:52 10° S 19:51:05 80° W 19:56:21 10° N
Cosmos 1821 Rocket 4.0 19:47:14 10° S 19:53:21 81° E 19:59:37 10° NNE
Cosmos 921 Rocket 3.9 19:51:03 10° N 19:54:57 34° ENE 19:58:03 14° ESE
CZ-2C R/B 4.0 19:50:28 10° NNE 19:55:08 74° WNW 19:59:40 10° SSW
Shenzhou-11 Module 3.9 19:54:34 10° SSW 19:55:11 11° S 19:55:30 10° S
COSMOS 2406 3.2 19:49:48 10° SSW 19:55:33 81° ESE 20:01:19 10° NNE
Intercosmos 25 3.9 19:52:28 10° NNW 19:57:20 63° W 20:00:45 10° S
Cosmos 1862 Rocket 3.9 19:52:58 10° N 19:57:22 50° ENE 20:01:01 14° SSE
SL-16 R/B 3.5 19:52:33 10° NNW 19:57:31 30° NE 20:02:26 10° ESE
ERS-1 Rocket 3.5 19:56:08 13° SE 20:00:18 46° ENE 20:05:06 10° N
Lacrosse 5 2.5 19:56:10 10° WNW 20:01:09 54° NNE 20:06:09 10° E
Cosmos 2369 3.9 19:57:01 10° NNW 20:02:45 74° WSW 20:08:05 12° SSE
Cosmos 1862 4.2 20:00:44 10° SSW 20:04:41 54° WNW 20:08:42 10° N
Sich 1 3.2 20:01:07 10° SSW 20:05:34 83° W 20:10:02 10° N
Cosmos 1818 4.2 20:02:17 10° NW 20:07:34 50° WSW 20:12:24 12° SSE
BREEZE-M DEB (TANK) 1.7 20:06:14 10° W 20:08:57 55° S 20:09:54 25° ESE
Cosmos 2082 Rocket 2.4 20:05:16 10° S 20:10:42 48° ESE 20:16:09 10° NE
Cosmos 2123 Rocket 4.0 20:05:45 10° N 20:11:59 85° E 20:18:06 11° S
Cosmos 2278 3.7 20:06:18 10° NNW 20:12:04 89° WSW 20:16:44 16° SSE
Cosmos 1954 Rocket 4.5 20:07:34 10° S 20:12:30 40° ESE 20:17:29 10° NE
Spot 2 Rocket 3.6 20:11:25 11° SSE 20:16:18 81° WSW 20:21:26 10° NNW
Cosmos 1535 Rocket 4.4 20:10:22 10° S 20:16:29 72° E 20:22:34 10° NNE
Meteor 1-4 Rocket 2.6 20:16:19 10° NNW 20:19:48 70° W 20:22:26 16° S
Cosmos 2322 Rocket 3.3 20:14:53 10° NNW 20:20:03 34° NE 20:24:25 14° ESE
CZ-2C R/B 4.4 20:17:59 10° N 20:22:36 34° WNW 20:27:13 10° SW
CARTOSAT-1 3.6 20:20:05 19° SSE 20:23:05 66° ENE 20:27:24 10° N
Cosmos 1184 Rocket 2.9 20:21:02 20° S 20:23:05 53° E 20:26:20 10° NNE
Cosmos 1190 Rocket 4.0 20:18:11 10° SSW 20:23:27 77° ESE 20:28:47 10° NNE
USA 234 3.4 20:18:46 17° SE 20:24:00 68° SW 20:30:32 10° WNW
Terra 2.3 20:21:08 19° SE 20:24:14 46° ENE 20:28:48 10° N
Cosmos 407 Rocket 3.6 20:21:04 10° SSW 20:26:25 85° WNW 20:31:44 10° NNE
Cosmos 1933 Rocket 4.1 20:24:16 21° SSE 20:26:44 39° E 20:30:53 10° NNE
Cosmos 1605 Rocket 4.0 20:21:08 12° S 20:26:48 59° E 20:32:47 10° NNE
Cosmos 1666 Rocket 3.7 20:22:51 10° SSW 20:27:10 75° WNW 20:31:32 10° N
Meteor 1-20 Rocket 4.4 20:23:25 12° S 20:28:38 57° E 20:34:22 10° NNE
Cosmos 1238 Rocket 2.6 20:28:02 29° SE 20:28:59 39° E 20:31:47 10° NNE
Okean 1 3.7 20:25:25 10° N 20:29:22 48° ENE 20:31:27 24° SE
Cosmos 1602 4.4 20:31:37 25° SE 20:33:18 38° E 20:36:58 10° NNE
ATLAS 3B R/B 4.4 20:34:00 11° E 20:34:00 11° E 20:35:02 10° E
Cosmos 1437 Rocket 3.5 20:30:17 10° N 20:33:53 37° ENE 20:35:27 25° ESE
Cosmos 2360 Rocket 3.7 20:29:17 10° NNW 20:34:07 27° NE 20:38:35 11° E
CZ-4B DEB 4.4 20:35:36 25° S 20:37:24 80° WSW 20:40:46 10° NNW
SPOT 5 2.5 20:35:54 23° SSE 20:38:34 80° ENE 20:42:57 10° NNW
ERBS 3.8 20:35:34 10° W 20:38:41 37° NNW 20:41:47 10° NE
Meteor 1-19 Rocket 4.3 20:33:30 10° N 20:38:54 61° ENE 20:42:13 23° SSE
USA 238 DEB 3.9 20:33:12 10° S 20:39:26 45° ESE 20:45:56 10° NE
USA 238 3.9 20:33:20 10° S 20:39:33 45° ESE 20:46:02 10° NE
Cosmos 1980 Rocket 2.5 20:37:34 10° NW 20:43:11 61° WSW 20:47:05 20° S
Iridium 4 Rocket 4.4 20:41:59 21° ESE 20:43:17 24° E 20:46:42 10° NNE
SPOT 1/Viking Rocket 4.0 20:39:53 14° S 20:44:14 59° W 20:49:26 10° NNW
Cosmos 1703 Rocket 3.8 20:40:45 10° N 20:45:04 55° ENE 20:47:06 29° SE
Cosmos 2242 Rocket 3.5 20:40:38 10° N 20:45:06 74° ENE 20:47:29 27° SSE
Cosmos 1763 Rocket 3.7 20:42:50 10° NNW 20:48:09 64° ENE 20:51:08 26° SE
Genesis I 3.8 20:45:21 10° NW 20:49:04 45° SW 20:50:44 27° S
SL-4 R/B 1.9 20:45:35 10° SW 20:49:18 48° SSE 20:51:35 20° E
BREEZE-M DEB (TANK) 2.8 20:46:52 10° W 20:49:55 74° S 20:59:05 10° E
Cosmos 1500 4.5 20:50:18 23° E 20:50:38 23° E 20:53:39 10° NE
Cosmos 405 Rocket 2.6 20:49:22 32° SSE 20:50:51 59° E 20:54:32 10° NNE
ATLAS 5 CENTAUR R/B 4.4 20:47:41 10° WNW 20:51:42 19° WSW 20:56:05 10° SSW
Cosmos 1140 Rocket 3.8 20:46:52 10° SSW 20:52:07 69° WNW 20:57:22 10° NNE
Cosmos 2333 Rocket 4.2 20:49:39 10° NNW 20:53:59 21° NE 20:58:18 10° E
FAST 4.3 20:51:22 10° N 20:54:16 75° E 20:54:41 57° SE
USA 32 4.2 20:53:02 12° SSW 20:57:53 71° W 21:03:08 10° N
Cosmos 1697 Rocket 4.3 20:53:51 10° NW 20:58:32 28° WSW 21:03:04 10° SSW
Cosmos 1633 Rocket 4.2 20:56:21 10° SW 21:00:34 43° WNW 21:04:50 10° N
Cosmos 1833 Rocket 3.5 20:56:00 10° SW 21:01:29 53° NW 21:07:01 10° NNE
Meteor 1-18 Rocket 4.2 21:00:54 10° NNW 21:06:32 78° W 21:09:50 25° S
Okean 1-7 2.9 21:02:24 10° N 21:06:47 81° E 21:08:30 36° SSE
Cosmos 1153 Rocket 4.4 21:03:26 21° S 21:07:39 76° E 21:13:51 10° NNE
Cosmos 1867 3.5 21:02:24 10° SW 21:07:50 83° SE 21:13:21 10° NE
CENTAUR R/B 2.9 21:04:46 24° S 21:07:58 42° ESE 21:14:28 10° NE
Resurs 01 Rocket 4.3 21:08:40 10° WSW 21:10:42 13° W 21:12:46 10° WNW
Okean 3 4.2 21:08:41 10° N 21:12:46 41° ENE 21:13:59 33° ESE
FALCON 9 DEB 3.1 21:11:33 10° SW 21:15:00 59° SSE 21:15:22 55° ESE
Meteor 2-4 Rocket 3.7 21:10:30 10° N 21:16:15 75° ENE 21:18:54 32° SSE
Cosmos 1850 Rocket 4.1 21:14:18 30° S 21:16:44 56° ESE 21:21:54 10° NNE
Cosmos 1802 Rocket 4.5 21:13:52 29° SE 21:16:46 46° E 21:22:48 10° NNE
Cosmos 1515 3.7 21:13:20 10° NNW 21:17:11 74° W 21:18:23 42° S
SL-27 R/B 3.5 21:19:37 28° ENE 21:19:37 28° ENE 21:21:52 10° NE
Cosmos 44 3.5 21:16:01 10° NW 21:20:50 65° NE 21:23:08 32° ESE
Cosmos 676 Rocket 4.5 21:15:45 10° SW 21:21:02 63° WNW 21:26:22 10° NNE
ATLAS 5 CENTAUR R/B 1.9 21:18:39 10° NW 21:21:10 67° NE 21:23:25 29° ESE
SWARM A 4.4 21:18:56 10° N 21:22:16 66° W 21:22:57 49° SSW
Spot 4 4.3 21:27:26 34° ESE 21:29:07 49° ENE 21:33:47 10° N
USA 267 3.5 21:23:35 10° ENE 21:30:07 73° NNW 21:36:38 10° WSW
Cosmos 921 Rocket 4.4 21:29:28 10° NW 21:33:10 29° W 21:34:51 22° SW
NOSS 3-2 (A) 3.4 21:28:06 10° SW 21:33:55 86° SE 21:40:40 10° NE
ERS-1 Rocket 4.4 21:36:09 16° SW 21:39:17 29° W 21:43:40 10° NNW
NOSS 3-2 (C) 3.3 21:35:51 21° SSW 21:39:49 66° SE 21:46:24 10° NE
Cosmos 841 Rocket 3.4 21:34:54 10° NNW 21:40:09 88° ENE 21:42:00 42° SSE
Cosmos 540 Rocket 3.4 21:36:23 10° NNW 21:41:37 87° ENE 21:43:22 43° SSE
SL-16 R/B 2.3 21:36:27 10° NW 21:42:06 68° WSW 21:44:17 38° S
Lacrosse 5 2.0 21:39:15 10° WNW 21:44:15 60° SW 21:45:31 45° SSE
Cosmos 1741 Rocket 4.0 21:48:23 29° SSW 21:51:09 85° WNW 21:56:29 10° NNE
Cosmos 1570 Rocket 4.0 21:46:06 10° NNW 21:51:26 75° WSW 21:53:10 43° S
Tsikada Rocket 4.2 21:46:00 10° N 21:52:22 64° ENE 21:54:55 37° SE
Cosmos 2219 Rocket 3.4 21:48:02 10° NNW 21:53:16 36° NE 21:56:38 19° ESE
Cosmos 2208 Rocket 3.9 21:48:13 10° NNW 21:53:34 84° WSW 21:55:11 46° SSE
Cosmos 1814 Rocket 3.9 21:48:42 10° NNW 21:53:56 87° WSW 21:55:32 46° SSE
Cosmos 2082 Rocket 3.6 21:49:39 10° WSW 21:54:56 38° NW 22:00:15 10° NNE
Cosmos 2084 Rocket 3.8 21:59:00 46° E 21:59:00 46° E 22:02:38 10° NE
Cosmos 2237 4.1 21:52:48 10° NNW 21:58:34 87° ENE 22:00:35 43° SSE
Terra 3.4 22:00:02 19° SW 22:02:11 27° W 22:06:13 10° NW
Cosmos 2322 Rocket 2.5 21:58:51 10° NW 22:04:25 57° WSW 22:06:13 40° SSW
EO 1 Del DPAF 3.6 22:01:33 10° NNE 22:04:57 48° E 22:04:57 48° E
Cosmos 2100 Rocket 4.2 22:05:35 27° SSW 22:09:03 64° WNW 22:15:11 10° N
Meteor 1-11 Rocket 3.7 22:09:09 44° S 22:11:00 78° E 22:16:46 10° NNE
Cosmos 1242 Rocket 2.6 22:08:39 10° N 22:12:07 67° ENE 22:12:07 67° ENE
Helios 1A 4.3 22:13:11 27° E 22:14:08 30° ENE 22:17:49 10° N
Cosmos 1869 Rocket 4.4 22:13:01 31° SW 22:14:40 46° WNW 22:18:59 10° N
ERBS 4.2 22:12:34 10° WNW 22:15:32 29° N 22:18:11 12° ENE
Cosmos 2360 Rocket 2.1 22:13:01 10° NNW 22:18:43 76° WSW 22:20:20 48° S
COSMOS 2428 3.5 22:14:14 10° NNW 22:19:48 47° NE 22:22:37 27° ESE
ATLAS 3B R/B 2.7 22:21:12 42° SSE 22:22:54 52° ESE 22:29:20 10° NE
Iridium 4 Rocket 4.1 22:21:45 30° WSW 22:23:06 38° W 22:27:04 10° N
Cosmos 2173 Rocket 4.5 22:21:11 25° SW 22:24:41 54° WNW 22:30:42 10° N
ALOS 2 2.4 22:27:44 69° SSE 22:28:16 88° ENE 22:32:41 10° NNW
SL-4 R/B 3.0 22:25:05 10° W 22:27:12 31° W 22:27:12 31° W
Cosmos 1725 Rocket 4.0 22:27:19 39° SSW 22:29:52 82° W 22:36:15 10° N
USA 238 DEB 4.2 22:23:40 10° WSW 22:30:17 59° NW 22:37:14 10° NE
USA 238 4.2 22:23:47 10° WSW 22:30:23 59° NW 22:37:20 10° NE
Nimbus 7 Rocket 4.4 22:24:46 10° NNE 22:30:38 66° ESE 22:32:15 47° SSE
Cosmos 1674 Rocket 3.3 22:28:30 10° NNW 22:32:51 84° W 22:33:13 74° SSW
SL-08 R/B 4.5 22:32:18 38° SSW 22:34:44 74° WNW 22:40:51 10° N
Cosmos 1536 2.9 22:34:39 65° WSW 22:34:54 68° WNW 22:38:53 10° N
Cosmos 1666 3.2 22:37:32 49° W 22:37:43 49° WNW 22:41:23 10° N
Cosmos 1743 3.2 22:38:17 51° ENE 22:38:17 51° ENE 22:41:46 10° NNE
Cosmos 2333 Rocket 2.3 22:33:31 10° NNW 22:39:19 72° ENE 22:41:19 42° SE
Cosmos 1271 Rocket 2.7 22:37:12 10° N 22:40:47 70° NE 22:40:47 70° NE
Cosmos 1356 4.2 22:41:30 47° WNW 22:41:30 47° WNW 22:44:39 10° N
Cosmos 2016 Rocket 4.4 22:39:51 30° SW 22:42:53 58° WNW 22:49:13 10° N
Cosmos 2237 Rocket 3.6 22:38:18 10° NNW 22:43:24 33° NE 22:47:32 14° ESE
MOS 1-B Rocket 4.4 22:38:18 10° N 22:43:54 53° WNW 22:46:43 27° SW
Cosmos 2061 Rocket 4.4 22:41:23 31° SW 22:44:17 56° WNW 22:50:24 10° N
Lacrosse 4 Rocket 2.2 22:45:23 38° E 22:45:23 38° E 22:48:38 10° NE
Cosmos 1733 Rocket 3.4 22:50:59 50° WSW 22:51:40 56° WNW 22:56:02 10° N
Meteor 2-11 Rocket 4.4 22:51:22 48° SSE 22:53:06 73° E 22:59:12 10° NNE
SL-27 R/B 4.5 22:53:08 19° WNW 22:54:01 21° NW 22:56:39 10° N
Thor Agena Rocket 4.0 22:50:14 10° N 22:55:09 53° WNW 22:57:00 35° WSW
Cosmos 44 Rocket 3.6 22:50:50 10° NW 22:55:46 65° NE 22:57:31 39° ESE
Cosmos 836 Rocket 4.4 22:51:52 10° NNW 22:57:06 82° WSW 22:58:03 60° S
CENTAUR R/B 3.1 22:52:12 10° WSW 22:58:24 60° NW 23:05:49 10° NE
Cosmos 968 Rocket 3.5 22:59:01 56° SE 22:59:34 59° ESE 23:04:38 10° NNE
Cosmos 1975 3.4 23:02:22 47° E 23:02:22 47° E 23:06:03 10° NNE
SL-24 DEB 4.1 22:59:51 10° N 23:04:41 84° E 23:05:18 67° S
Cosmos 1782 Rocket 3.8 23:10:37 55° ESE 23:10:44 55° E 23:15:00 10° NNE
USA 267 4.0 23:06:27 10° ENE 23:12:47 54° N 23:19:06 10° WNW
Cosmos 1378 4.1 23:09:23 10° NNW 23:12:29 37° WNW 23:12:29 37° WNW
Cosmos 1707 3.9 23:12:15 10° N 23:15:53 34° ENE 23:16:13 34° E
Cosmos 2233 Rocket 4.3 23:14:31 37° SW 23:16:58 59° WNW 23:23:15 10° N
Cosmos 1464 Rocket 4.1 23:15:36 44° SSE 23:17:28 64° E 23:23:36 10° NNE
Cosmos 1842 3.2 23:13:54 10° N 23:17:41 81° NNW 23:17:41 81° NNW
Cosmos 1908 Rocket 3.5 23:18:33 69° WSW 23:18:53 73° WNW 23:23:16 10° N
Cosmos 2344 4.4 23:11:11 10° NW 23:20:07 73° NE 23:32:32 10° SE
Helios 1B rocket 3.6 23:18:10 10° NNE 23:21:48 32° E 23:21:48 32° E
CZ-4 R/B 4.4 23:17:26 10° NNE 23:22:16 48° E 23:23:00 44° SE
Meteor 1-21 4.2 23:17:54 10° NNW 23:23:46 87° ENE 23:25:22 51° SSE
Cosmos 2227 Rocket 4.0 23:22:42 17° ESE 23:23:48 18° E 23:27:26 10° ENE
SL-16 R/B 4.3 23:22:58 10° WNW 23:25:07 12° W 23:26:08 12° WSW
Lacrosse 5 4.1 23:23:40 10° W 23:24:41 12° W 23:24:41 12° W
Cosmos 2322 4.1 23:23:30 10° NW 23:28:50 43° WSW 23:29:31 41° SW
COSMOS 2487 3.6 23:32:14 35° NW 23:32:14 35° NW 23:35:22 10° N
Nadezhda 4 Rocket 4.0 23:29:27 10° N 23:35:49 77° E 23:38:03 42° SSE
Cosmos 2219 Rocket 2.4 23:31:56 10° NW 23:37:28 52° WSW 23:38:19 48° SW
Cosmos 783 Rocket 4.4 23:36:10 10° NNW 23:41:25 75° WSW 23:42:23 58° S
Cosmos 1975 Rocket 3.1 23:37:43 10° NNW 23:42:10 62° W 23:42:25 61° WSW
Cosmos 1513 Rocket 4.5 23:42:38 45° SSW 23:44:46 84° W 23:51:15 10° N
Cosmos 1437 4.1 23:42:23 10° N 23:44:31 35° NNE 23:44:31 35° NNE
Okean 2 Rocket 3.5 23:45:22 49° ESE 23:45:52 51° E 23:50:15 10° NNE
Cosmos 2034 Rocket 4.0 23:43:53 44° SSE 23:45:56 74° E 23:52:15 10° NNE
Cosmos 1503 Rocket 4.0 23:45:55 54° SSW 23:47:12 86° WNW 23:52:37 10° NNE
Cosmos 1072 Rocket 4.4 23:46:51 46° SSW 23:48:47 76° W 23:54:56 10° N
Landsat 4 3.7 23:45:30 10° NNE 23:49:12 81° NNW 23:49:12 81° NNW
Helios 1A 3.9 23:49:48 34° W 23:49:48 34° W 23:53:31 10° NNW
Cosmos 1092 Rocket 4.2 23:43:47 10° N 23:50:01 64° ENE 23:52:45 34° SE
SL-16 R/B 3.4 23:46:15 17° SE 23:50:45 45° ENE 23:56:39 10° N
ERBS 3.6 23:48:56 10° WNW 23:51:02 35° NW 23:51:02 35° NW
CZ-2D R/B 3.8 23:48:15 10° NE 23:52:42 25° E 23:54:54 19° SE
Cosmos 1300 Rocket 3.8 23:52:28 53° ESE 23:52:51 55° E 23:57:05 10° NNE
SL-16 R/B 3.4 23:48:16 10° NNW 23:53:39 40° NE 23:58:59 10° ESE
Cosmos 1544 4.1 23:54:38 36° WNW 23:54:38 36° WNW 23:57:57 10° N
